Theta_e
304 301 298 302 303 304 303 299 300 304 309 309 306 305 308 314 323 323 323 330 331 332 337 340 341 344 345 345 345 346 345 345 346 343 340 339 340 342 345 348 349 348 349 350
301 298 305 306 305 303 302 299 299 304 308 306 304 305 308 309 316 322 322 324 330 332 329 334 338 342 343 343 344 345 345 346 346 346 343 341 339 341 345 345 348 348 348 348
298 304 308 305 304 301 297 297 298 299 304 305 304 301 304 308 311 314 321 325 327 330 328 332 336 340 342 342 344 345 344 346 348 346 343 340 341 340 341 342 343 346 347 349
301 306 306 301 301 300 296 302 303 303 298 294 301 292 300 305 308 314 318 320 325 328 330 333 335 338 339 341 345 345 344 345 347 345 344 339 337 334 337 340 342 343 345 347
300 302 302 301 302 303 301 306 304 303 296 294 297 294 298 304 306 308 310 317 320 328 329 331 335 338 340 342 343 344 344 345 346 345 345 342 338 338 339 339 340 342 342 343
302 305 304 304 306 305 305 302 300 298 294 290 294 295 299 301 305 308 315 319 317 327 331 331 334 338 340 342 343 343 344 344 345 345 344 344 341 339 339 338 339 340 342 342
300 302 304 306 300 303 301 295 290 290 290 290 291 296 297 308 312 317 320 324 322 325 328 329 332 335 338 339 342 343 344 342 344 345 345 344 343 341 340 340 339 338 339 337
292 295 303 305 302 299 299 294 290 287 287 291 294 293 301 315 320 323 326 328 328 327 330 334 335 337 339 341 343 342 343 342 344 345 345 344 343 343 342 342 341 341 341 340
293 296 307 309 307 303 298 295 298 292 289 290 294 299 309 318 319 323 325 327 326 330 332 331 326 330 333 341 342 344 343 342 344 345 344 344 344 343 342 342 342 342 343 343
299 295 302 308 308 306 303 301 294 293 288 288 293 295 297 310 315 319 321 324 328 333 333 334 334 333 338 340 340 343 347 344 345 346 344 344 344 344 343 342 341 343 344 344
301 298 300 303 299 297 298 296 294 293 292 290 288 294 307 313 316 316 319 324 326 329 326 327 331 332 337 339 340 345 345 346 347 347 347 345 345 343 342 342 344 346 345 346
303 297 294 297 303 303 300 295 294 291 290 291 291 294 314 317 318 317 320 325 328 330 328 329 331 332 332 333 340 339 346 347 348 349 347 346 346 343 340 340 341 345 345 345
302 295 292 295 298 301 298 298 295 292 291 290 288 292 312 311 313 315 313 323 328 327 326 327 325 326 327 328 329 332 336 348 349 349 347 346 345 343 341 340 339 342 345 345
309 294 294 292 294 296 295 299 296 293 289 289 291 295 306 308 309 311 312 321 325 326 325 323 323 324 327 329 329 329 331 335 348 350 349 345 345 344 343 342 340 341 341 343
300 294 294 295 298 298 299 299 299 294 294 292 295 294 304 310 308 310 318 321 323 323 325 323 321 322 324 328 331 335 337 332 341 348 348 348 347 346 345 343 342 341 340 342
297 294 297 294 300 298 297 298 299 298 302 297 303 304 311 316 318 316 318 318 318 318 321 323 326 327 330 330 328 335 337 337 338 346 348 350 347 344 345 344 344 342 341 341
296 294 291 288 295 296 291 295 299 303 304 303 300 302 312 311 313 312 313 315 316 318 319 318 319 320 319 323 328 333 334 337 342 346 347 348 347 343 343 344 344 342 341 342
293 291 290 288 290 284 293 305 307 303 304 305 305 307 309 310 312 313 314 312 314 315 315 316 317 317 319 320 323 330 331 336 338 339 344 346 345 345 343 343 344 344 343 341
293 292 289 288 286 291 299 302 302 299 300 306 303 306 308 309 311 310 313 313 313 313 314 314 316 317 316 316 321 326 325 334 334 336 342 344 343 345 343 343 342 343 343 342
298 294 292 289 288 287 296 305 307 305 295 306 306 305 305 306 299 304 312 314 314 314 314 314 316 315 313 312 316 319 320 326 331 335 339 342 344 344 345 344 343 344 344 343
292 292 292 291 290 295 302 306 307 293 294 306 307 307 307 302 305 308 311 310 312 312 312 314 314 313 312 312 313 315 318 321 330 336 339 339 339 344 346 345 344 344 344 344
291 290 290 290 288 288 306 304 297 300 303 306 307 307 307 307 309 309 310 309 309 310 311 313 312 313 313 313 313 313 314 320 328 336 337 334 335 340 348 345 343 344 344 342
292 295 293 295 294 302 304 303 306 306 305 305 306 307 307 307 308 309 309 310 310 310 311 312 312 311 313 313 313 312 315 320 324 334 332 331 332 335 338 343 342 341 342 343
297 300 296 295 298 302 305 307 308 308 307 308 309 309 309 308 310 310 311 310 309 311 311 312 311 310 311 313 314 314 317 322 326 332 329 329 330 329 332 339 342 342 341 341
299 299 297 295 299 303 305 307 307 308 309 309 310 310 310 311 311 311 311 312 313 313 313 313 311 311 311 313 314 317 318 319 321 326 329 328 328 328 330 330 328 338 328 327
300 298 295 294 300 301 302 306 308 307 308 310 309 310 311 311 310 311 311 312 313 313 313 311 311 311 313 315 316 317 316 316 319 321 326 326 326 325 328 332 327 316 312 315
Wind_Speed
4 6 5 11 6 6 6 4 9 4 3 4 8 7 11 11 15 12 11 15 16 19 17 16 15 16 14 13 12 13 11 8 8 4 3 2 4 3 2 4 7 7 6 6
8 6 11 4 6 6 8 6 7 6 4 4 3 9 10 6 9 19 18 15 20 15 8 14 15 16 17 16 14 12 11 9 9 6 4 3 3 2 2 3 6 6 7 6
5 12 7 5 15 4 4 6 3 5 6 4 5 9 6 5 6 7 10 17 15 17 15 14 15 17 15 14 16 14 11 11 10 7 4 3 3 2 1 2 2 4 7 7
6 6 3 4 7 5 2 2 3 4 4 3 3 6 7 7 9 5 2 9 13 14 12 13 15 15 16 14 11 11 10 10 8 9 7 6 4 5 4 3 2 4 6 6
9 7 5 5 6 6 7 2 3 3 2 3 4 3 10 5 7 6 4 7 7 13 15 17 18 16 13 12 13 12 9 10 8 10 11 8 5 4 3 2 4 4 4 5
9 4 5 8 4 3 3 4 7 5 3 4 5 5 8 5 6 5 7 8 8 12 16 11 9 11 9 9 10 10 12 12 10 10 9 11 9 7 4 4 6 5 4 4
6 5 5 4 2 4 7 8 5 7 7 6 3 1 2 11 7 6 6 8 6 6 7 10 11 8 5 3 10 11 13 12 11 13 11 11 10 8 8 7 6 6 6 3
1 9 5 1 4 4 3 6 7 3 3 6 3 4 4 6 3 6 8 7 11 14 16 15 10 6 8 7 7 7 7 10 11 12 11 8 8 7 6 6 4 5 6 6
5 5 6 3 3 5 1 3 3 6 2 2 4 1 2 5 10 11 12 15 12 14 17 16 9 2 5 4 8 7 7 6 9 12 8 9 9 10 9 7 6 5 5 5
5 1 2 6 7 7 8 3 5 5 0 3 5 5 4 3 6 6 8 10 14 14 12 10 6 4 4 5 7 11 9 10 10 9 8 8 10 9 8 5 7 8 6 6
5 4 5 3 5 1 6 5 5 5 4 4 2 7 6 5 1 3 3 4 9 10 12 9 5 6 12 3 3 4 10 11 10 10 8 9 9 7 6 6 7 7 6 5
1 6 1 2 2 3 5 3 4 6 7 2 4 8 4 6 5 4 3 3 4 6 5 7 8 8 10 5 3 6 4 8 11 11 8 11 9 7 7 7 7 6 6 5
3 3 4 10 7 7 7 4 2 3 3 4 3 7 3 4 7 6 3 5 4 5 5 6 4 7 8 7 6 7 3 3 8 8 9 8 9 8 9 9 7 8 8 7
8 3 7 8 7 4 2 3 2 3 2 3 6 6 7 4 4 3 0 4 6 5 5 3 4 4 6 8 9 9 4 4 6 8 9 9 10 11 10 9 8 10 8 7
6 3 2 4 3 3 5 3 1 3 5 5 7 4 5 6 4 5 7 5 8 6 4 3 2 3 6 7 8 9 8 7 7 8 10 13 12 10 9 9 9 8 8 9
3 1 2 2 3 0 2 2 4 1 2 7 4 3 6 6 10 12 8 6 5 6 5 3 3 4 6 8 7 4 6 6 5 8 12 13 7 9 10 11 10 8 9 8
3 6 4 6 2 3 3 2 4 4 3 4 2 1 4 8 8 5 5 5 6 5 3 2 3 4 5 5 4 4 5 4 6 7 8 9 8 8 10 10 10 10 10 9
7 6 3 4 3 1 5 4 10 12 4 6 5 5 4 3 3 3 3 1 1 3 4 4 3 3 5 5 4 5 7 5 5 6 8 7 10 10 9 11 13 12 10 11
3 6 3 4 4 3 4 2 1 2 1 2 2 5 5 7 4 5 2 1 4 4 6 6 3 5 7 8 8 6 4 5 6 6 6 6 7 11 9 13 14 13 11 10
7 5 5 3 3 7 1 5 3 3 1 1 2 4 5 5 4 6 6 5 6 5 3 5 6 6 4 6 5 7 8 6 7 6 6 6 6 9 13 12 11 11 10 12
5 5 3 1 2 1 4 8 6 3 4 4 3 4 5 4 6 7 10 7 6 5 7 6 6 6 6 5 5 7 6 6 7 7 6 5 4 7 11 11 11 11 11 10
2 1 1 1 1 4 4 3 3 3 2 3 4 6 8 10 13 12 11 10 10 9 8 8 6 6 7 6 4 7 8 9 6 6 7 6 5 4 5 9 10 10 10 12
2 5 3 6 5 4 2 2 4 5 4 5 5 9 10 13 13 14 13 13 12 11 9 7 7 8 7 7 5 7 8 7 9 7 7 7 5 5 5 5 8 7 9 9
4 2 2 3 3 4 6 5 4 4 6 9 10 11 14 17 16 17 15 12 10 10 10 11 8 8 8 7 7 7 7 7 8 8 7 6 6 4 2 5 7 7 5 6
4 2 1 4 6 7 4 7 7 9 9 12 13 13 15 15 15 16 15 16 16 13 12 10 10 9 10 9 8 7 7 5 7 8 8 6 5 4 3 1 4 5 6 5
3 6 4 6 7 6 9 7 7 9 13 14 12 14 15 15 17 18 17 15 14 14 12 9 10 9 11 11 11 9 8 7 7 8 7 6 4 4 2 4 4 9 8 25
Wind_Direction
10 47 267 250 194 207 265 228 246 259 228 213 241 264 266 191 215 209 197 203 202 210 209 210 195 190 186 186 181 184 177 163 152 144 141 142 197 182 223 209 193 188 180 179
8 277 259 260 182 208 226 266 285 301 323 170 222 270 269 178 214 208 199 199 208 204 181 190 183 180 183 185 180 175 181 163 171 163 169 157 151 200 214 200 195 181 175 185
166 248 350 333 302 296 218 215 236 223 327 337 334 308 317 266 244 225 205 201 201 192 179 180 177 183 179 183 182 180 176 171 178 153 117 70 72 35 326 239 199 181 176 192
235 290 252 320 262 143 268 192 236 278 59 280 63 281 314 316 315 21 212 177 191 187 180 172 175 180 180 183 174 175 168 174 174 150 159 164 187 186 207 195 187 185 178 183
252 290 324 310 245 196 227 20 12 354 73 9 340 74 270 335 353 341 296 242 205 189 174 177 182 177 177 171 172 169 159 176 176 171 172 185 184 213 169 160 182 203 200 204
249 260 218 214 256 233 39 55 39 44 51 32 258 137 286 332 316 2 16 333 221 188 187 171 153 153 161 166 165 167 171 187 175 176 181 186 191 194 190 180 191 196 201 201
316 276 273 185 285 358 69 50 354 3 7 232 342 58 273 326 353 114 60 347 18 149 96 77 85 94 41 199 174 173 182 190 188 184 188 193 201 191 203 198 194 185 194 204
113 336 347 290 181 181 35 128 149 220 241 267 314 358 312 322 29 61 57 48 45 84 108 112 102 140 150 165 183 203 207 191 190 196 194 193 196 208 206 202 185 209 209 194
141 277 314 353 85 105 23 3 197 108 54 10 292 212 332 354 30 39 48 59 55 114 130 127 113 126 321 217 183 183 188 208 214 202 190 193 198 204 208 201 196 198 203 191
190 346 287 311 44 14 97 182 24 8 261 279 294 286 230 323 36 23 38 63 87 104 110 114 128 51 76 193 182 179 179 198 207 212 194 208 200 203 204 179 195 203 200 201
124 107 277 46 34 23 16 14 40 113 124 163 280 268 201 195 228 79 86 75 105 131 141 146 143 151 207 183 311 259 179 181 195 200 202 191 205 201 193 194 195 204 181 189
55 124 76 150 305 355 88 93 107 110 294 185 157 273 254 197 209 245 103 41 66 103 122 163 190 206 225 180 32 359 303 200 203 205 193 202 197 189 192 205 192 173 187 181
174 29 35 346 357 7 55 360 103 108 84 239 127 268 235 275 286 61 161 119 86 95 108 189 223 272 9 2 207 155 253 253 220 206 199 201 198 194 209 210 191 180 187 189
78 107 154 186 200 158 73 350 82 108 113 268 230 286 275 309 30 114 306 120 123 113 106 76 349 319 297 317 315 319 284 232 277 201 197 202 208 207 202 217 200 187 189 196
87 122 192 233 232 192 185 183 259 208 222 185 255 265 335 329 329 188 147 109 104 102 104 122 191 258 294 301 304 321 314 241 205 237 203 217 205 212 192 202 212 202 191 202
3 158 178 268 229 335 220 305 253 38 346 260 78 67 352 358 59 50 35 32 57 89 95 125 210 252 277 283 300 305 7 305 253 251 229 232 196 204 199 200 203 199 200 198
141 139 102 248 319 334 340 247 102 108 2 246 144 338 345 38 53 43 45 27 2 13 51 43 330 289 269 271 308 357 357 330 336 283 257 236 222 200 204 202 198 212 200 189
146 123 120 210 42 235 267 81 111 110 40 8 45 24 35 108 219 239 285 336 6 311 348 329 259 311 325 319 298 351 358 340 327 314 272 235 224 220 201 191 201 203 204 201
135 123 121 148 183 268 155 297 66 158 206 331 40 353 350 335 293 242 20 306 271 277 264 253 301 321 327 334 332 354 325 304 317 313 323 283 240 234 212 207 208 206 192 202
76 72 114 124 165 213 303 316 328 139 262 281 355 360 340 1 348 263 298 321 307 293 269 298 264 217 249 307 313 322 320 319 299 289 293 294 253 238 237 219 209 208 206 203
360 359 85 77 233 1 323 297 304 177 239 340 352 303 304 276 221 276 310 295 263 260 277 292 309 315 306 320 322 310 291 269 254 272 263 280 282 258 244 233 220 204 205 211
125 87 303 48 268 257 343 320 6 195 270 261 260 260 265 264 272 275 273 271 275 276 277 265 260 272 285 284 310 302 299 287 289 272 272 277 274 274 264 242 225 222 200 199
360 174 203 168 223 217 280 169 188 171 231 264 257 280 264 267 270 274 272 270 266 265 272 252 244 254 267 279 257 275 270 293 299 267 266 278 275 271 267 254 236 232 223 210
321 82 116 52 244 240 260 247 241 229 257 277 267 271 280 279 282 279 278 274 266 267 268 259 245 249 252 253 257 245 270 285 292 278 271 278 290 299 300 264 279 208 199 247
206 59 91 280 281 306 294 218 250 266 254 262 261 260 267 273 273 273 276 277 277 273 269 261 249 251 252 254 246 244 259 272 288 281 272 261 264 290 307 83 281 220 161 139
190 183 155 227 233 208 257 255 256 263 271 269 259 268 264 265 270 275 275 267 264 267 266 255 251 247 258 259 252 244 241 242 251 276 271 254 258 264 225 161 75 359 132 116